Regional Weather Roundup
Issued by NWS

Home | Current Version | Previous Version | Graphics & Text | Print | Product List | Glossary On
Versions: 1 2 3 4 5 6 7 8 9 10 11 12 13 14 15 16 17 18 19 20 21 22 23 24 25 26 27 28 29 30 31 32 33 34 35 36 37 38 39 40 41 42 43 44 45 46 47 48 49 50
966
ASUS45 KTFX 280410
RWRMT
MONTANA REGIONAL WEATHER ROUNDUP
NATIONAL WEATHER SERVICE GREAT FALLS MT
1000 PM MDT TUE JUN 27 2017

NOTE: "FAIR" INDICATES FEW OR NO CLOUDS BELOW 12000 FEET WITH NO
SIGNIFICANT WEATHER AND/OR OBSTRUCTIONS TO VISIBILITY.

MTZ001>007-043-280500-
WEST OF THE DIVIDE

CITY           SKY/WX    TMP DP  RH WIND       PRES   REMARKS
KALISPELL      PTCLDY    67  39  35 W5        29.78R
MISSOULA       PTCLDY    71  36  27 N6        29.81R
BUTTE          CLOUDY    59  45  59 SE7       29.97S
MULLAN PASS    PTCLDY    53  39  59 VRB3      29.97F
ANACONDA         N/A     61  45  55 S9G16     29.92S
DEER LODGE       N/A     59  46  63 CALM      29.92R
EUREKA           N/A     70  41  35 CALM      29.75R
HAMILTON         N/A     66  46  48 S10       29.86R
$$

MTZ008-052>055-280500-
SOUTHWEST MONTANA

CITY           SKY/WX    TMP DP  RH WIND       PRES   REMARKS
BOZEMAN        CLOUDY    63  46  54 CALM      29.92F
DILLON         CLOUDY    59  44  57 S8        29.98S
W YELLOWSTONE  CLOUDY    50  48  93 SW5       30.07R
ENNIS          CLOUDY    55  50  82 S3        30.03F
THREE FORKS      N/A     59  50  72 SW12      29.90F
$$

MTZ009-010-012-014-046-048-049-054-280500-
EAST SLOPES AND CENTRAL MONTANA

CITY           SKY/WX    TMP DP  RH WIND       PRES   REMARKS
CUT BANK       CLOUDY    67  36  31 W15       29.76R
GREAT FALLS    CLEAR     64  47  53 S8        29.76S
MALMSTROM AFB  CLEAR     60  50  68 S7        29.76R
HELENA         PTCLDY    74  34  23 W10       29.81R
CHOTEAU          N/A     68  37  32 S7        29.80R
$$

MTZ011-013-016-021-045-047-050-051-280500-
NORTH CENTRAL MONTANA

CITY           SKY/WX    TMP DP  RH WIND       PRES   REMARKS
HAVRE          CLEAR     61  46  57 E8        29.71F
LEWISTOWN      CLEAR     58  52  80 S8        29.83R
N BAR RANCH      N/A     61  50  67 W5        29.88R
CHINOOK          N/A     68  43  40 E3        29.72S
FORT BENTON      N/A    N/A N/A N/A CALM      29.75S
$$

MTZ017>020-022>027-061-062-280500-
NORTHEAST MONTANA

CITY           SKY/WX    TMP DP  RH WIND       PRES   REMARKS
GLASGOW        PTCLDY    68  43  40 N10       29.71R
JORDAN           N/A     64  60  87 CALM      29.73R
SIDNEY         CLOUDY    71  57  61 N9        29.66R
WOLF POINT     CLOUDY    71  49  45 NW8       29.68R
MALTA          CLEAR     68  45  42 N9        29.73R
PLENTYWOOD       N/A     64  54  68 CALM      29.67R
POPLAR           N/A     68  54  60 NW8       29.67S
$$

MTZ028>42-056>058-280500-
SOUTHCENTRAL AND SOUTHEAST MONTANA

CITY           SKY/WX    TMP DP  RH WIND       PRES   REMARKS
BAKER          CLOUDY    65  52  62 NW12      29.71F
BILLINGS       CLOUDY    68  46  45 CALM      29.82R
LIVINGSTON     CLOUDY    65  46  50 SW28G33   29.89R
MILES CITY     CLOUDY    66  52  60 W8        29.75R
BIG TIMBER     CLEAR     63  45  51 W15G21    29.90R
LAUREL           N/A     62  45  53 NW5       29.84R
ROUNDUP          N/A     69  47  45 W2        29.75S
$$

REGIONAL REPORTS...DAKOTAS

CITY           SKY/WX    TMP DP  RH WIND       PRES   REMARKS
WILLISTON      PTCLDY    69  58  67 N10       29.64R
MINOT          CLOUDY    73  60  63 N10       29.53R
DICKINSON      CLOUDY    72  51  47 NW17G25   29.64R
BEACH          MOCLDY    63  61  94 NW14      29.72R
CROSBY           N/A     61  61 100 NW7       29.64R
TIOGA            N/A     64  59  82 NW12G17   29.64R
WATFORD CITY     N/A     68  55  64 NW7       29.63R
BISMARCK       CLOUDY    68  65  90 NE9       29.53R
GRAND FORKS    CLOUDY    68  50  52 SE14      29.62R
FARGO          CLOUDY    71  50  47 SE14G24   29.63S
BUFFALO SD       N/A     69  51  52 NW28G36   29.64R
RAPID CITY     CLOUDY    67  52  58 NW15      29.70R
$$

REGIONAL REPORTS...WYOMING/IDAHO/WASHINGTON

CITY           SKY/WX    TMP DP  RH WIND       PRES   REMARKS
GILLETTE       CLOUDY    62  52  69 NW12      29.85R
SHERIDAN       PTCLDY    59  52  77 W7        29.88R
BUFFALO WY     PTCLDY    58  47  66 NW9G21    29.93R
CODY           CLOUDY    63  41  44 W12       29.93F
YELLOWSTONE LA   N/A     43  43 100 CALM      30.14S
IDAHO FALLS    CLEAR     60  50  69 N10       29.91R
SALMON         CLOUDY    63  48  59 S9        29.93S
BOISE          PTCLDY    82  41  23 CALM      29.75F
SPOKANE        MOCLDY    72  37  28 SW6       29.80S
$$

REGIONAL REPORTS...ALBERTA

CITY           SKY/WX    TMP DP  RH WIND       PRES   REMARKS
EDMONTON       MOCLDY    55  46  71 W10       29.69F
CALGARY        PTCLDY    59  45  58 E3        29.75R
LETHBRIDGE     PTCLDY    66  43  42 W6        29.68R
MEDICINE HAT   CLEAR     66  43  42 E7        29.69R
WATERTON GATE    N/A     63  36  36 W9          N/A
CARDSTON         N/A     66  37  34 W10         N/A
MILK RIVER       N/A     63  54  72 NW2         N/A
ONEFOUR          N/A     61  39  44 E8          N/A
$$

REGIONAL REPORTS...SASKATCHEWAN

CITY           SKY/WX    TMP DP  RH WIND       PRES   REMARKS
SWIFT CURRENT  CLEAR     55  39  54 N8        29.74R
REGINA         PTCLDY    59  45  58 W13       29.66R
SASKATOON      PTCLDY    55  43  62 W8        29.65R
VAL MARIE        N/A     54  43  66 N8          N/A
ROCKGLEN         N/A     59  45  58 NW7         N/A
ASSINIBOIA       N/A     55  50  82 W8          N/A
$$




USA.gov is the U.S. government's official web portal to all federal, state and local government web resources and services.